Probability
0 0 0 0 0 0 0 0 0 29 39 39 45 52 55 55 61 48 55 61 61 55 52 55 65 58 55 61 61 65 65 65 71 58 52 45 39 45 45 23 23 23 23 19
0 0 0 0 0 0 0 0 10 48 52 48 55 48 48 42 39 35 35 42 45 42 45 55 52 52 55 48 55 52 48 42 55 52 61 48 32 29 39 29 16 16 6 16
0 0 0 0 0 0 0 0 6 39 52 48 58 58 71 48 32 26 29 32 32 29 32 16 13 16 23 39 39 23 42 42 42 42 29 26 35 35 13 10 13 10 13 13
0 0 0 0 0 0 0 0 6 26 48 35 39 16 71 52 42 35 29 29 26 26 16 13 10 10 13 13 13 23 23 32 32 23 23 19 29 19 16 10 6 10 10 6
0 0 0 0 0 0 0 0 3 16 3 0 0 0 48 58 45 35 26 23 19 13 10 10 13 16 13 6 6 10 13 19 23 19 23 23 23 13 16 6 3 6 6 3
0 0 0 0 0 0 0 3 3 0 0 0 0 0 6 52 39 26 23 19 19 16 13 10 6 10 6 0 3 3 10 19 23 16 16 23 19 19 6 3 3 0 0 0
0 0 0 0 0 0 0 0 0 0 0 0 0 0 35 39 19 16 10 16 16 10 6 3 3 6 6 0 0 0 10 13 13 10 6 3 6 3 3 3 3 3 3 0
0 0 0 0 0 0 0 0 0 0 0 0 0 0 48 13 13 16 10 3 0 3 6 3 3 0 0 0 0 0 3 3 3 3 3 6 0 0 0 0 0 0 0 0
0 0 0 0 0 0 0 0 0 0 0 0 0 0 19 16 6 0 3 0 0 0 0 3 3 0 0 0 0 0 0 3 3 0 0 3 3 0 0 0 0 0 3 0
0 0 0 0 0 0 0 0 0 0 0 0 0 0 0 0 0 0 0 0 0 0 0 0 0 0 0 0 0 0 0 0 0 0 0 0 0 3 3 0 0 0 0 0
0 0 0 0 0 0 0 0 0 0 0 0 0 0 0 0 0 0 0 0 0 0 0 0 0 0 0 0 0 0 0 0 0 0 0 0 0 0 3 0 0 0 0 0
0 0 0 0 0 0 0 0 0 0 0 0 0 0 0 0 0 0 0 0 0 0 0 0 0 0 0 0 0 0 0 0 0 0 0 0 0 0 0 0 0 0 0 0
0 0 0 0 0 0 0 0 0 0 0 0 0 0 0 0 0 0 0 0 0 0 0 0 0 0 0 0 0 0 0 0 0 0 0 0 0 0 0 0 0 0 0 0
0 0 0 0 0 0 0 0 0 0 0 0 0 0 0 0 0 0 0 0 0 0 0 0 0 0 0 0 0 0 0 0 0 0 0 0 0 0 0 0 0 0 0 3
0 0 0 0 0 0 0 0 0 0 0 0 0 0 0 0 0 0 0 0 0 0 0 0 0 0 0 0 0 0 0 0 0 0 0 0 0 0 0 0 0 0 0 0
0 0 0 0 0 0 0 0 0 0 0 0 0 0 0 0 0 0 0 0 0 0 0 0 0 0 0 0 0 0 0 0 0 0 0 0 0 0 0 0 0 0 0 0
0 0 0 0 0 0 0 0 0 0 0 0 0 0 0 0 0 0 0 0 0 0 0 0 0 0 0 0 0 0 0 0 0 0 0 0 0 0 0 0 0 0 0 0
3 3 0 0 0 0 0 0 0 0 0 0 0 0 0 0 0 0 0 0 0 0 0 0 0 0 0 0 0 0 0 0 0 0 0 0 0 0 0 0 0 0 0 0
0 3 0 0 0 0 0 0 0 0 0 0 0 0 0 0 0 0 0 0 0 0 0 0 0 0 0 0 0 0 0 0 0 0 0 0 0 0 0 0 0 0 0 0
0 0 0 0 0 0 0 0 0 0 0 0 0 0 0 0 0 0 0 0 0 0 0 0 0 0 0 0 0 0 0 0 0 0 0 0 0 0 0 0 0 0 0 0
0 0 0 0 0 0 0 0 0 0 0 0 0 0 0 0 0 0 0 0 0 0 0 0 0 0 0 0 0 0 0 0 0 0 0 0 0 0 0 0 0 0 0 0
0 0 0 0 0 0 0 0 0 0 0 0 0 0 0 0 0 0 0 0 0 0 0 0 0 0 0 0 0 0 0 0 0 0 0 0 0 0 0 0 0 0 0 0
0 0 0 0 0 0 0 0 0 0 0 0 0 0 0 0 0 0 0 0 0 0 0 0 0 0 0 0 0 0 0 0 0 0 0 0 0 0 0 0 0 0 0 0
0 0 0 0 0 0 0 0 0 0 0 0 0 0 0 0 0 0 0 0 0 0 0 0 0 0 0 0 0 0 0 0 0 0 0 0 0 0 0 0 0 0 0 0
0 0 0 0 0 0 0 0 0 0 0 0 0 0 0 0 0 0 0 0 0 0 0 0 0 0 0 0 0 0 0 0 0 0 0 0 0 0 0 0 0 0 0 0
0 0 0 0 0 0 0 0 0 0 0 0 0 0 0 0 0 0 0 0 0 0 0 0 0 0 0 0 0 0 0 0 0 0 0 0 0 0 0 0 0 0 0 0
Height
5864 5866 5867 5867 5867 5869 5869 5871 5871 5869 5869 5869 5868 5867 5867 5866 5865 5864 5864 5863 5862 5862 5861 5859 5858 5856 5854 5851 5848 5845 5841 5837 5834 5831 5828 5825 5822 5820 5818 5816 5814 5811 5808 5806
5865 5866 5865 5865 5865 5866 5867 5868 5868 5866 5865 5865 5864 5863 5862 5861 5860 5859 5858 5858 5857 5856 5854 5852 5850 5848 5845 5842 5839 5835 5831 5827 5824 5821 5818 5815 5812 5810 5808 5806 5804 5802 5800 5798
5865 5865 5863 5863 5864 5864 5865 5867 5866 5864 5862 5861 5861 5859 5858 5856 5855 5854 5853 5852 5850 5849 5847 5844 5842 5839 5836 5833 5829 5825 5821 5818 5814 5811 5808 5805 5802 5799 5798 5796 5794 5793 5791 5789
5863 5862 5862 5862 5863 5863 5864 5863 5862 5861 5860 5860 5859 5859 5855 5852 5851 5850 5848 5846 5845 5842 5840 5837 5834 5831 5828 5824 5820 5816 5812 5808 5805 5801 5798 5795 5792 5789 5787 5785 5784 5782 5781 5780
5862 5861 5861 5861 5861 5860 5861 5860 5860 5859 5859 5858 5857 5857 5853 5850 5848 5846 5844 5842 5839 5837 5834 5830 5827 5823 5819 5815 5811 5807 5803 5799 5795 5791 5788 5784 5781 5778 5776 5774 5773 5771 5770 5770
5860 5860 5859 5859 5859 5859 5859 5859 5858 5857 5857 5857 5855 5854 5851 5847 5845 5842 5840 5837 5834 5831 5828 5824 5820 5816 5811 5807 5802 5798 5793 5789 5785 5781 5777 5773 5769 5766 5764 5761 5760 5759 5758 5758
5861 5859 5859 5859 5858 5858 5858 5858 5858 5857 5856 5855 5852 5850 5847 5844 5841 5838 5835 5832 5829 5825 5821 5817 5813 5808 5803 5799 5794 5789 5784 5779 5774 5769 5765 5761 5757 5753 5750 5748 5746 5744 5743 5744
5862 5861 5859 5858 5858 5857 5856 5857 5857 5856 5855 5853 5848 5846 5844 5840 5837 5834 5831 5827 5823 5819 5815 5810 5805 5800 5794 5789 5784 5778 5773 5768 5763 5757 5753 5748 5744 5740 5736 5733 5731 5728 5727 5727
5861 5860 5858 5857 5856 5856 5855 5854 5853 5853 5851 5850 5847 5843 5840 5836 5833 5830 5826 5822 5817 5813 5807 5802 5796 5791 5785 5779 5773 5767 5762 5756 5750 5744 5739 5734 5730 5725 5722 5718 5715 5713 5711 5710
5860 5859 5858 5856 5855 5854 5854 5852 5851 5850 5849 5848 5845 5840 5837 5832 5829 5825 5820 5816 5811 5805 5799 5793 5787 5781 5774 5768 5761 5755 5749 5743 5737 5731 5725 5720 5716 5711 5707 5703 5700 5697 5695 5693
5859 5858 5857 5855 5854 5853 5852 5851 5849 5847 5845 5844 5842 5840 5833 5828 5824 5820 5814 5809 5804 5798 5791 5785 5778 5771 5763 5756 5749 5742 5736 5730 5723 5717 5712 5706 5701 5695 5691 5686 5683 5679 5677 5675
5858 5857 5855 5854 5852 5851 5849 5848 5846 5845 5842 5839 5837 5836 5829 5824 5819 5814 5809 5803 5797 5790 5783 5775 5768 5760 5752 5744 5737 5730 5723 5717 5710 5703 5697 5691 5685 5679 5674 5669 5664 5661 5658 5656
5857 5856 5855 5853 5852 5850 5847 5845 5843 5841 5839 5836 5833 5832 5823 5819 5814 5808 5803 5796 5789 5782 5774 5766 5758 5750 5741 5734 5726 5719 5712 5704 5697 5690 5683 5676 5669 5662 5656 5651 5646 5642 5639 5636
5855 5854 5854 5853 5850 5847 5845 5843 5840 5838 5835 5832 5828 5825 5819 5813 5808 5802 5796 5789 5781 5773 5765 5757 5748 5740 5732 5724 5716 5708 5700 5692 5684 5676 5668 5660 5653 5645 5638 5632 5626 5622 5619 5616
5853 5852 5850 5848 5846 5844 5842 5840 5837 5834 5831 5828 5824 5819 5814 5808 5802 5796 5790 5783 5775 5766 5757 5748 5739 5730 5722 5714 5705 5697 5689 5680 5671 5662 5653 5644 5636 5628 5620 5613 5606 5602 5598 5595
5852 5850 5848 5846 5844 5841 5839 5836 5833 5830 5827 5823 5819 5814 5809 5803 5797 5790 5784 5776 5767 5759 5749 5740 5730 5721 5712 5704 5695 5686 5677 5668 5658 5649 5639 5628 5619 5610 5601 5593 5587 5581 5577 5575
5849 5847 5846 5844 5841 5839 5836 5833 5830 5826 5822 5819 5814 5810 5804 5798 5791 5784 5777 5769 5760 5751 5741 5731 5721 5712 5703 5694 5685 5676 5666 5656 5646 5635 5624 5613 5603 5593 5583 5575 5567 5561 5557 5555
5847 5845 5843 5841 5839 5836 5835 5830 5827 5823 5818 5814 5809 5804 5799 5793 5785 5778 5770 5762 5753 5743 5733 5723 5713 5703 5694 5685 5675 5665 5655 5644 5633 5621 5609 5598 5587 5577 5567 5558 5550 5545 5540 5538
5844 5842 5840 5838 5836 5833 5830 5826 5822 5819 5815 5810 5805 5800 5794 5788 5780 5772 5764 5755 5745 5735 5725 5715 5704 5695 5685 5676 5666 5656 5645 5633 5621 5609 5596 5584 5573 5562 5553 5543 5536 5530 5525 5523
5841 5839 5837 5834 5832 5829 5826 5822 5818 5815 5810 5806 5800 5794 5788 5782 5776 5768 5758 5749 5740 5729 5719 5708 5697 5687 5677 5668 5657 5646 5635 5623 5610 5597 5585 5572 5561 5550 5540 5531 5523 5517 5513 5510
5838 5836 5834 5831 5827 5824 5821 5817 5814 5810 5806 5800 5794 5789 5782 5776 5769 5762 5753 5743 5733 5723 5712 5701 5690 5680 5670 5660 5649 5638 5627 5614 5601 5588 5575 5563 5551 5540 5530 5521 5514 5508 5503 5500
5835 5832 5829 5827 5824 5822 5816 5812 5809 5806 5799 5794 5789 5783 5777 5770 5763 5755 5746 5737 5727 5716 5706 5695 5684 5673 5663 5653 5642 5631 5619 5607 5593 5580 5568 5555 5544 5533 5523 5515 5507 5501 5497 5494
5830 5828 5825 5823 5821 5816 5812 5808 5804 5799 5795 5790 5784 5779 5772 5765 5758 5750 5741 5731 5721 5710 5700 5689 5678 5667 5657 5647 5636 5625 5613 5600 5588 5575 5562 5550 5539 5529 5519 5511 5504 5498 5493 5490
5825 5823 5820 5817 5814 5810 5807 5803 5799 5794 5790 5785 5779 5773 5767 5760 5752 5744 5735 5725 5715 5705 5694 5683 5673 5662 5652 5642 5631 5620 5608 5596 5584 5571 5559 5547 5537 5527 5517 5510 5503 5497 5492 5489
5820 5817 5815 5812 5809 5805 5802 5798 5794 5789 5785 5779 5774 5768 5762 5754 5746 5738 5729 5719 5709 5699 5688 5678 5668 5658 5648 5638 5627 5616 5605 5593 5581 5569 5557 5546 5536 5526 5517 5510 5503 5497 5492 5488
5814 5812 5809 5807 5803 5800 5797 5793 5789 5784 5779 5774 5768 5762 5756 5748 5740 5732 5723 5713 5704 5694 5684 5674 5664 5654 5644 5635 5624 5614 5603 5592 5580 5569 5558 5547 5537 5527 5519 5511 5505 5499 5493 5490
Wind_Speed
6 5 5 7 7 8 9 8 10 14 16 17 19 21 22 23 23 23 23 23 23 25 27 29 31 33 35 37 39 41 42 43 43 43 42 41 41 40 37 34 34 33 31 30
2 4 6 5 6 7 7 7 9 12 14 15 17 19 20 21 22 23 23 23 25 26 28 31 33 35 36 38 40 40 41 42 43 43 42 41 41 40 37 37 36 34 32 30
3 6 5 5 5 5 6 6 9 11 12 13 13 15 16 17 18 20 21 22 23 25 27 30 31 33 34 36 37 37 38 39 40 40 39 40 40 39 38 37 36 34 34 32
4 6 5 5 6 5 6 8 8 9 8 10 8 10 13 14 16 17 19 21 23 25 27 28 30 32 33 35 36 37 37 38 38 39 40 41 41 41 40 39 39 38 37 36
5 5 5 5 6 5 7 6 6 7 7 8 9 8 16 15 16 18 19 21 23 25 27 29 31 33 35 36 37 37 38 39 40 40 41 42 43 43 43 43 43 42 41 39
4 4 4 4 5 5 5 5 6 7 8 9 12 10 16 16 18 20 21 23 25 27 30 32 33 34 35 37 38 40 40 41 42 43 44 45 46 46 47 47 47 46 45 44
5 4 3 4 4 5 5 6 8 9 9 12 15 14 16 17 20 21 23 25 27 29 31 32 33 35 37 38 40 41 42 43 44 45 46 47 48 49 49 50 51 51 51 50
5 6 5 4 5 6 6 7 7 8 9 12 16 16 17 18 20 21 24 26 27 29 31 33 34 36 38 40 41 42 43 43 44 45 46 47 47 48 49 49 50 52 53 53
4 6 5 5 5 6 6 6 7 8 10 11 14 16 16 18 19 21 24 25 27 29 32 34 36 38 40 41 42 42 43 43 44 44 45 45 45 46 46 47 48 49 50 52
5 5 5 5 5 5 5 6 7 8 9 10 14 18 18 19 21 23 25 27 29 32 34 36 38 40 41 42 43 43 44 43 43 43 44 44 45 46 47 48 49 50 51 51
5 6 6 6 5 5 6 7 8 10 10 11 12 18 19 21 23 25 28 30 32 35 37 39 40 41 43 44 44 44 43 43 43 43 44 45 46 47 48 49 50 50 51 52
5 6 6 6 6 7 8 9 10 11 13 14 15 19 20 22 25 27 30 32 35 37 39 41 42 44 44 44 44 43 43 44 45 45 46 46 47 48 49 49 49 50 51 52
6 6 6 8 9 9 10 10 11 12 14 15 16 21 22 24 27 30 32 35 38 40 41 42 44 45 44 44 44 44 44 45 45 46 47 47 48 50 50 50 50 50 51 51
6 6 5 7 9 12 12 12 13 14 16 17 19 21 24 27 30 33 35 38 40 42 43 44 45 45 44 44 44 44 44 45 46 47 48 49 50 51 51 51 51 51 51 51
6 7 8 9 11 13 13 14 15 16 17 18 21 23 26 29 32 35 37 39 41 43 44 45 46 45 44 44 43 44 44 46 47 49 50 51 52 52 52 52 52 51 50 50
8 9 10 12 13 14 15 15 16 18 19 20 22 25 28 30 34 36 39 41 43 44 45 46 46 45 44 43 43 44 45 47 49 51 52 52 52 52 52 51 51 50 49 48
10 11 12 14 15 15 15 16 17 19 21 22 24 27 29 32 35 38 40 43 45 46 47 48 47 45 43 43 44 45 47 49 51 52 52 52 51 51 51 49 48 46 44 44
12 14 15 16 16 16 16 17 18 19 21 23 25 28 30 33 36 39 41 44 46 47 48 48 47 45 44 44 45 47 49 51 52 52 52 51 50 49 48 46 43 41 39 39
14 15 16 16 17 18 17 18 19 20 20 23 26 28 31 34 37 41 43 45 48 49 49 49 48 46 44 45 46 47 49 51 52 52 52 50 48 46 44 42 38 36 35 34
15 15 17 17 18 19 20 20 21 22 23 25 27 30 32 35 37 40 44 46 48 49 50 49 48 46 45 45 46 48 50 51 52 51 50 48 47 44 41 38 34 31 30 29
16 17 17 18 20 21 21 22 23 24 26 27 29 31 34 37 40 42 45 47 49 50 50 49 47 46 45 45 46 48 50 51 51 51 49 47 44 40 37 34 30 26 24 23
17 18 19 19 20 22 22 22 23 25 26 28 30 32 35 38 41 44 46 48 50 50 49 48 47 45 45 45 46 48 49 51 51 50 47 44 41 37 34 30 26 22 19 17
18 19 20 20 21 22 22 23 24 25 27 29 30 33 36 39 42 45 47 49 50 50 49 48 46 45 45 45 46 47 49 49 49 48 45 42 38 35 31 28 23 19 16 13
19 19 20 20 21 22 23 23 24 26 27 29 31 34 37 40 44 46 48 49 50 49 48 48 46 44 44 44 46 47 48 47 48 47 44 40 37 34 30 27 23 19 15 10
20 20 20 21 21 22 22 23 25 26 28 30 33 36 39 42 45 48 50 50 50 49 48 47 45 43 43 43 45 46 46 45 46 45 42 39 36 33 29 26 23 19 15 10
20 20 21 21 22 22 23 24 26 27 29 32 34 37 40 44 47 49 50 49 49 48 47 46 45 43 41 42 43 44 44 44 44 42 40 38 35 33 29 25 22 19 15 10
Wind_Direction
269 256 243 249 254 250 256 252 259 267 272 272 272 274 276 278 280 279 279 278 276 274 275 275 276 278 280 282 284 285 285 286 286 286 288 288 289 290 288 288 289 288 286 285
300 260 259 267 271 271 272 270 275 280 280 278 278 278 279 279 279 280 280 279 279 279 279 280 281 283 285 286 287 287 287 287 286 286 287 288 288 287 287 285 285 284 285 282
211 247 259 260 267 279 282 266 274 287 293 291 290 290 285 284 284 283 284 285 285 285 286 286 287 287 288 289 290 289 290 289 289 289 288 288 288 286 284 283 281 281 282 282
273 265 265 262 264 261 270 277 284 296 308 305 304 296 297 298 297 295 293 293 293 293 293 293 293 293 293 293 295 294 293 292 291 290 289 289 287 285 283 282 280 279 279 279
288 275 265 263 261 258 258 277 290 298 304 304 308 298 294 303 303 300 298 298 298 298 298 297 297 296 296 296 296 296 295 294 292 291 289 287 286 285 283 281 279 277 276 274
297 284 267 261 272 272 275 287 303 312 314 300 299 298 292 303 304 301 298 297 298 299 300 299 299 298 298 297 297 296 295 293 292 290 289 287 285 283 281 280 277 275 273 270
326 316 295 287 283 285 285 298 306 305 302 289 296 298 296 301 302 302 302 301 301 301 303 302 300 299 299 298 297 296 294 293 291 290 288 286 284 282 280 278 276 274 271 268
321 313 310 304 290 288 289 291 284 283 288 293 303 306 309 306 307 306 307 306 304 305 306 306 304 303 301 300 299 298 296 294 292 290 288 286 284 282 280 277 275 272 270 268
317 311 314 308 301 295 295 294 299 305 311 313 309 314 314 315 315 313 313 313 313 313 312 310 308 307 305 304 302 301 299 297 295 293 291 289 287 285 283 280 277 275 272 268
332 322 316 313 306 305 307 312 317 319 314 312 313 317 321 322 321 321 320 320 320 318 316 314 312 311 310 308 306 305 303 301 300 297 295 293 291 288 285 282 279 277 274 270
338 333 325 324 325 325 324 324 327 326 325 324 317 313 326 326 326 326 325 324 323 321 319 318 316 315 314 312 310 309 307 305 303 301 299 296 293 290 287 284 281 277 274 272
334 333 327 327 331 333 333 335 334 332 329 329 327 322 331 329 328 328 327 327 325 324 322 320 319 318 317 315 313 312 311 309 307 305 303 300 298 295 292 288 283 279 276 273
330 335 344 337 337 338 339 338 335 332 331 330 330 324 331 331 330 330 330 330 328 327 325 323 322 321 319 317 315 314 312 311 310 308 305 303 301 298 295 291 286 282 278 274
326 332 337 325 326 331 334 335 333 332 331 330 329 328 329 332 332 332 333 332 331 329 328 326 324 323 320 318 317 316 314 313 312 310 308 306 303 301 297 293 288 284 279 275
332 337 337 334 331 331 330 331 330 329 329 329 329 329 331 332 332 333 334 333 332 331 330 328 326 325 323 321 320 319 317 316 315 313 311 309 305 303 299 294 289 286 280 274
335 339 339 335 330 328 328 327 326 326 327 329 329 330 332 333 332 333 335 335 334 333 332 331 329 327 325 323 323 322 321 320 318 317 314 311 308 305 302 297 292 286 280 273
333 335 336 332 328 326 323 325 326 326 326 329 331 332 333 334 333 335 336 336 336 335 333 332 331 329 327 326 326 325 324 323 322 320 317 314 312 309 306 301 296 289 281 273
330 331 331 328 326 326 324 323 323 325 326 329 330 331 333 334 335 336 337 337 337 336 335 334 333 331 330 329 329 328 328 327 326 324 322 319 316 313 310 305 299 292 283 275
325 327 327 328 326 323 323 325 325 327 328 328 329 332 334 336 337 337 338 339 338 338 337 336 335 334 333 333 332 332 331 331 330 328 326 323 320 317 315 310 304 295 286 276
320 323 324 325 323 321 324 326 327 328 328 331 332 335 336 337 339 339 339 339 339 338 338 338 337 336 336 336 336 335 335 335 334 333 330 328 325 322 320 315 309 301 291 279
318 320 320 320 320 318 322 325 327 329 330 333 335 336 337 338 339 339 340 339 339 339 339 339 339 338 338 338 339 339 338 338 338 337 336 333 331 329 327 323 317 310 300 284
314 315 316 316 315 315 321 323 326 328 330 332 334 336 337 338 338 339 340 340 340 340 340 340 340 340 340 341 341 341 341 341 342 342 341 339 338 337 336 334 329 321 310 292
310 311 311 313 312 314 318 321 324 328 330 332 334 335 336 337 338 338 339 340 340 340 341 341 342 342 342 343 343 344 344 345 346 346 346 345 345 344 344 343 341 334 324 306
309 311 311 311 311 313 317 320 323 327 329 331 333 334 335 336 337 338 339 340 340 341 341 342 343 344 344 344 345 346 347 348 349 350 350 350 350 351 351 352 349 344 337 322
308 311 311 310 311 313 316 319 322 325 328 330 331 332 334 334 336 337 339 340 341 341 342 343 344 345 345 346 347 348 350 351 353 354 355 356 356 357 356 356 354 352 348 342
309 310 310 310 311 313 316 318 321 323 326 328 329 331 332 333 335 337 339 341 341 342 343 344 345 346 346 347 349 351 352 354 355 357 359 0 1 2 2 3 4 5 5 8